SHT2T EGLL-EGCC

Flight info

Callsign SHT2T
Flight time 0h 42m
Altitude 18000
Route ULTIB T420 ELVOS
Aircraft A320/M-SDE3FGHIJ1RWXY/S

Departure

Time 2026-05-05 21:18
Airport London Heathrow Airport (EGLL)

Arrival

Time 2026-05-05 22:00
Airport Manchester Airport (EGCC)
Time Latitude Longitude Altitude Speed Heading
2026-05-05 20:40 51.47417 -0.48955 86 ft 0 kts 180°
2026-05-05 21:08 51.47428 -0.48956 90 ft 4 kts 180°
2026-05-05 21:08 51.47455 -0.48956 89 ft 3 kts 180°
2026-05-05 21:08 51.47464 -0.48956 87 ft 0 kts 181°
2026-05-05 21:09 51.47484 -0.48954 90 ft 4 kts 184°
2026-05-05 21:09 51.47506 -0.48954 90 ft 2 kts 175°
2026-05-05 21:10 51.47529 -0.48964 88 ft 2 kts 153°
2026-05-05 21:10 51.47530 -0.48965 88 ft 0 kts 153°
2026-05-05 21:12 51.47524 -0.48959 86 ft 2 kts 149°
2026-05-05 21:13 51.47504 -0.48935 89 ft 4 kts 129°
2026-05-05 21:13 51.47488 -0.48873 89 ft 7 kts 101°
2026-05-05 21:13 51.47488 -0.48774 87 ft 11 kts 90°
2026-05-05 21:13 51.47487 -0.48640 88 ft 14 kts 91°
2026-05-05 21:14 51.47462 -0.48493 88 ft 15 kts 147°
2026-05-05 21:14 51.47356 -0.48475 86 ft 16 kts 175°
2026-05-05 21:14 51.47242 -0.48474 86 ft 18 kts 180°
2026-05-05 21:14 51.47111 -0.48475 86 ft 19 kts 179°
2026-05-05 21:15 51.47005 -0.48474 86 ft 14 kts 178°
2026-05-05 21:15 51.46917 -0.48469 90 ft 9 kts 178°
2026-05-05 21:15 51.46843 -0.48469 86 ft 12 kts 180°
2026-05-05 21:15 51.46756 -0.48469 86 ft 14 kts 180°
2026-05-05 21:16 51.46656 -0.48470 86 ft 13 kts 180°
2026-05-05 21:16 51.46618 -0.48470 86 ft 0 kts 180°
2026-05-05 21:16 51.46606 -0.48470 86 ft 3 kts 180°
2026-05-05 21:16 51.46560 -0.48471 87 ft 16 kts 181°
2026-05-05 21:17 51.46480 -0.48412 87 ft 10 kts 89°
2026-05-05 21:17 51.46480 -0.48248 89 ft 35 kts 89°
2026-05-05 21:17 51.46482 -0.47445 86 ft 106 kts 90°
2026-05-05 21:17 51.46494 -0.45968 97 ft 156 kts 89°
2026-05-05 21:18 51.46526 -0.44250 733 ft 152 kts 87°
2026-05-05 21:18 51.46547 -0.42550 1451 ft 155 kts 87°
2026-05-05 21:18 51.46851 -0.40787 1838 ft 177 kts 59°
2026-05-05 21:18 51.47669 -0.39137 2169 ft 201 kts 51°
2026-05-05 21:19 51.48611 -0.37339 2580 ft 222 kts 50°
2026-05-05 21:19 51.49621 -0.35406 3316 ft 229 kts 50°
2026-05-05 21:19 51.50684 -0.33370 3978 ft 247 kts 50°
2026-05-05 21:19 51.51802 -0.31207 4859 ft 255 kts 52°
2026-05-05 21:20 51.52621 -0.28631 5662 ft 266 kts 69°
2026-05-05 21:20 51.53238 -0.25822 5930 ft 268 kts 70°
2026-05-05 21:20 51.53825 -0.23021 5999 ft 268 kts 70°
2026-05-05 21:20 51.54540 -0.20278 6008 ft 265 kts 52°
2026-05-05 21:21 51.55967 -0.18508 6009 ft 262 kts 18°
2026-05-05 21:21 51.57761 -0.18419 6077 ft 262 kts 343°
2026-05-05 21:21 51.59345 -0.19863 6081 ft 264 kts 323°
2026-05-05 21:21 51.60746 -0.21789 6086 ft 265 kts 319°
2026-05-05 21:22 51.62132 -0.23744 6089 ft 265 kts 323°
2026-05-05 21:22 51.63621 -0.25483 6091 ft 264 kts 327°
2026-05-05 21:22 51.65161 -0.27089 6090 ft 264 kts 329°
2026-05-05 21:22 51.66730 -0.28632 6128 ft 266 kts 330°
2026-05-05 21:23 51.68344 -0.30178 6926 ft 269 kts 330°
2026-05-05 21:23 51.69957 -0.31716 7961 ft 270 kts 330°
2026-05-05 21:23 51.71579 -0.33270 8915 ft 273 kts 329°
2026-05-05 21:23 51.73218 -0.34847 9849 ft 276 kts 329°
2026-05-05 21:24 51.74891 -0.36461 10467 ft 290 kts 329°
2026-05-05 21:24 51.76690 -0.38203 10753 ft 313 kts 329°
2026-05-05 21:24 51.78607 -0.40057 11172 ft 326 kts 329°
2026-05-05 21:24 51.80574 -0.41960 11874 ft 332 kts 329°
2026-05-05 21:25 51.82565 -0.43888 12660 ft 335 kts 328°
2026-05-05 21:25 51.84575 -0.45842 13430 ft 339 kts 328°
2026-05-05 21:25 51.86605 -0.47814 14160 ft 342 kts 328°
2026-05-05 21:25 51.88664 -0.49815 14781 ft 348 kts 327°
2026-05-05 21:26 51.90750 -0.51846 15426 ft 352 kts 328°
2026-05-05 21:26 51.92865 -0.53906 16050 ft 357 kts 328°
2026-05-05 21:26 51.95003 -0.55989 16703 ft 361 kts 327°
2026-05-05 21:26 51.97166 -0.58099 17321 ft 365 kts 327°
2026-05-05 21:27 51.99359 -0.60241 17851 ft 370 kts 328°
2026-05-05 21:27 52.01570 -0.62403 17982 ft 376 kts 327°
2026-05-05 21:27 52.03843 -0.64632 17998 ft 386 kts 328°
2026-05-05 21:27 52.06152 -0.66898 17997 ft 389 kts 327°
2026-05-05 21:28 52.08472 -0.69177 18002 ft 390 kts 327°
2026-05-05 21:28 52.10790 -0.71456 18002 ft 390 kts 327°
2026-05-05 21:28 52.13082 -0.73707 18002 ft 390 kts 327°
2026-05-05 21:28 52.15438 -0.76021 18002 ft 390 kts 327°
2026-05-05 21:29 52.17727 -0.78278 18000 ft 390 kts 327°
2026-05-05 21:29 52.20043 -0.80573 18011 ft 390 kts 327°
2026-05-05 21:29 52.22360 -0.82873 18010 ft 390 kts 327°
2026-05-05 21:29 52.24676 -0.85174 18012 ft 390 kts 327°
2026-05-05 21:30 52.26991 -0.87477 18016 ft 390 kts 326°
2026-05-05 21:30 52.29310 -0.89787 18030 ft 390 kts 326°
2026-05-05 21:30 52.31616 -0.92081 17917 ft 383 kts 327°
2026-05-05 21:30 52.33827 -0.94272 18017 ft 364 kts 327°
2026-05-05 21:31 52.35983 -0.96415 18019 ft 361 kts 326°
2026-05-05 21:31 52.38126 -0.98555 18021 ft 360 kts 327°
2026-05-05 21:31 52.40261 -1.00692 18025 ft 359 kts 326°
2026-05-05 21:31 52.42388 -1.02825 18025 ft 358 kts 327°
2026-05-05 21:32 52.44510 -1.04962 18028 ft 358 kts 326°
2026-05-05 21:32 52.46633 -1.07100 18026 ft 358 kts 326°
2026-05-05 21:32 52.48758 -1.09234 18028 ft 358 kts 327°
2026-05-05 21:32 52.50881 -1.11361 18028 ft 358 kts 327°
2026-05-05 21:33 52.53006 -1.13486 18030 ft 357 kts 326°
2026-05-05 21:33 52.55125 -1.15611 18028 ft 357 kts 327°
2026-05-05 21:33 52.57250 -1.17746 18030 ft 357 kts 327°
2026-05-05 21:33 52.59368 -1.19880 18030 ft 357 kts 326°
2026-05-05 21:34 52.61485 -1.22018 18032 ft 357 kts 326°
2026-05-05 21:34 52.63596 -1.24156 18030 ft 357 kts 326°
2026-05-05 21:34 52.65713 -1.26302 18030 ft 357 kts 326°
2026-05-05 21:34 52.67829 -1.28451 18030 ft 357 kts 326°
2026-05-05 21:35 52.69943 -1.30601 18008 ft 358 kts 326°
2026-05-05 21:35 52.72055 -1.32748 17730 ft 356 kts 326°
2026-05-05 21:35 52.74157 -1.34887 17495 ft 353 kts 326°
2026-05-05 21:35 52.76243 -1.37014 17240 ft 351 kts 327°
2026-05-05 21:36 52.78291 -1.39100 16980 ft 349 kts 326°
2026-05-05 21:36 52.80352 -1.41204 16719 ft 348 kts 326°
2026-05-05 21:36 52.82409 -1.43307 16459 ft 346 kts 326°
2026-05-05 21:36 52.84447 -1.45394 16199 ft 345 kts 326°
2026-05-05 21:37 52.86479 -1.47479 15944 ft 342 kts 326°
2026-05-05 21:37 52.88496 -1.49550 15689 ft 340 kts 326°
2026-05-05 21:37 52.90505 -1.51613 15440 ft 339 kts 327°
2026-05-05 21:37 52.92501 -1.53666 15186 ft 337 kts 327°
2026-05-05 21:38 52.94490 -1.55713 14937 ft 335 kts 326°
2026-05-05 21:38 52.96461 -1.57744 14691 ft 333 kts 327°
2026-05-05 21:38 52.98415 -1.59759 14348 ft 328 kts 326°
2026-05-05 21:38 53.00339 -1.61751 13879 ft 325 kts 327°
2026-05-05 21:39 53.02254 -1.63740 13369 ft 323 kts 326°
2026-05-05 21:39 53.04155 -1.65714 12885 ft 321 kts 326°
2026-05-05 21:39 53.05883 -1.68005 12426 ft 317 kts 314°
2026-05-05 21:39 53.07314 -1.70717 12257 ft 305 kts 310°
2026-05-05 21:40 53.08667 -1.73348 12101 ft 294 kts 310°
2026-05-05 21:40 53.09979 -1.75885 11929 ft 284 kts 310°
2026-05-05 21:40 53.11256 -1.78359 11516 ft 281 kts 311°
2026-05-05 21:40 53.12521 -1.80806 11267 ft 276 kts 311°
2026-05-05 21:41 53.13752 -1.83188 11140 ft 267 kts 311°
2026-05-05 21:41 53.14942 -1.85495 11016 ft 258 kts 311°
2026-05-05 21:41 53.16095 -1.87736 10825 ft 253 kts 311°
2026-05-05 21:41 53.17242 -1.89960 10518 ft 253 kts 311°
2026-05-05 21:42 53.18385 -1.92186 10214 ft 253 kts 311°
2026-05-05 21:42 53.19514 -1.94414 9965 ft 250 kts 311°
2026-05-05 21:42 53.20631 -1.96627 9661 ft 249 kts 311°
2026-05-05 21:42 53.21753 -1.98837 9297 ft 250 kts 311°
2026-05-05 21:43 53.22882 -2.01048 8996 ft 249 kts 311°
2026-05-05 21:43 53.23944 -2.03318 8725 ft 248 kts 298°
2026-05-05 21:43 53.24348 -2.06037 8466 ft 248 kts 270°
2026-05-05 21:43 53.23901 -2.08824 8117 ft 253 kts 247°
2026-05-05 21:44 53.23092 -2.11428 7880 ft 250 kts 244°
2026-05-05 21:44 53.22255 -2.13912 7743 ft 242 kts 239°
2026-05-05 21:44 53.21221 -2.16083 7595 ft 236 kts 231°
2026-05-05 21:44 53.20130 -2.18102 7343 ft 233 kts 229°
2026-05-05 21:45 53.19057 -2.20107 7059 ft 231 kts 231°
2026-05-05 21:45 53.17994 -2.22108 6776 ft 230 kts 231°
2026-05-05 21:45 53.16943 -2.24103 6500 ft 228 kts 230°
2026-05-05 21:45 53.15905 -2.26086 6187 ft 227 kts 230°
2026-05-05 21:46 53.14873 -2.28070 5873 ft 226 kts 230°
2026-05-05 21:46 53.13844 -2.30048 5559 ft 226 kts 230°
2026-05-05 21:46 53.12822 -2.32021 5244 ft 225 kts 230°
2026-05-05 21:46 53.11806 -2.34001 4936 ft 224 kts 230°
2026-05-05 21:47 53.10799 -2.35980 4621 ft 224 kts 230°
2026-05-05 21:47 53.09954 -2.38146 4263 ft 224 kts 248°
2026-05-05 21:47 53.09707 -2.40687 3882 ft 225 kts 278°
2026-05-05 21:47 53.10045 -2.43214 3533 ft 224 kts 292°
2026-05-05 21:48 53.10450 -2.44787 3321 ft 223 kts 298°
2026-05-05 21:48 53.11183 -2.47056 3045 ft 221 kts 303°
2026-05-05 21:48 53.12009 -2.49237 3005 ft 224 kts 309°
2026-05-05 21:48 53.13107 -2.51038 3009 ft 222 kts 323°
2026-05-05 21:49 53.14208 -2.52855 3007 ft 224 kts 316°
2026-05-05 21:49 53.15249 -2.54783 3009 ft 224 kts 313°
2026-05-05 21:49 53.16543 -2.57469 3008 ft 225 kts 307°
2026-05-05 21:49 53.17354 -2.59713 3008 ft 227 kts 297°
2026-05-05 21:50 53.17765 -2.61354 3010 ft 227 kts 292°
2026-05-05 21:50 53.18296 -2.63840 3009 ft 228 kts 290°
2026-05-05 21:50 53.18811 -2.66347 3009 ft 229 kts 290°
2026-05-05 21:50 53.19310 -2.68825 3010 ft 228 kts 290°
2026-05-05 21:51 53.19798 -2.71334 3008 ft 228 kts 284°
2026-05-05 21:51 53.19819 -2.73940 3005 ft 222 kts 258°
2026-05-05 21:51 53.19119 -2.76144 3012 ft 216 kts 220°
2026-05-05 21:51 53.17819 -2.77293 3015 ft 212 kts 191°
2026-05-05 21:52 53.15137 -2.76451 3007 ft 199 kts 133°
2026-05-05 21:52 53.14495 -2.74483 3011 ft 195 kts 99°
2026-05-05 21:52 53.14484 -2.72243 3008 ft 196 kts 72°
2026-05-05 21:53 53.15265 -2.70418 3013 ft 198 kts 39°
2026-05-05 21:53 53.16383 -2.69071 3001 ft 198 kts 46°
2026-05-05 21:53 53.17225 -2.67376 2998 ft 183 kts 63°
2026-05-05 21:53 53.17463 -2.65358 3017 ft 179 kts 86°
2026-05-05 21:54 53.17820 -2.63447 3006 ft 173 kts 51°
2026-05-05 21:54 53.18608 -2.62034 3041 ft 162 kts 53°
2026-05-05 21:54 53.19292 -2.60580 3018 ft 157 kts 53°
2026-05-05 21:54 53.19975 -2.59154 3010 ft 158 kts 53°
2026-05-05 21:55 53.20662 -2.57739 3005 ft 157 kts 53°
2026-05-05 21:55 53.21347 -2.56335 3006 ft 156 kts 53°
2026-05-05 21:55 53.22031 -2.54934 3006 ft 155 kts 52°
2026-05-05 21:55 53.22704 -2.53556 3006 ft 155 kts 51°
2026-05-05 21:56 53.23391 -2.52149 3005 ft 154 kts 51°
2026-05-05 21:56 53.24057 -2.50786 3008 ft 151 kts 52°
2026-05-05 21:56 53.24712 -2.49399 3003 ft 153 kts 58°
2026-05-05 21:56 53.25112 -2.47766 2999 ft 154 kts 67°
2026-05-05 21:57 53.25747 -2.46339 2750 ft 155 kts 47°
2026-05-05 21:57 53.26439 -2.44976 2441 ft 152 kts 52°
2026-05-05 21:57 53.27093 -2.43637 2205 ft 145 kts 52°
2026-05-05 21:57 53.27717 -2.42356 1995 ft 140 kts 52°
2026-05-05 21:58 53.28312 -2.41133 1791 ft 130 kts 52°
2026-05-05 21:58 53.28868 -2.39990 1615 ft 124 kts 53°
2026-05-05 21:58 53.29408 -2.38879 1438 ft 122 kts 51°
2026-05-05 21:58 53.29939 -2.37787 1275 ft 121 kts 52°
2026-05-05 21:59 53.30474 -2.36682 1106 ft 125 kts 52°
2026-05-05 21:59 53.31034 -2.35530 917 ft 129 kts 51°
2026-05-05 21:59 53.31608 -2.34346 734 ft 132 kts 53°
2026-05-05 21:59 53.32186 -2.33153 561 ft 133 kts 52°
2026-05-05 22:00 53.32771 -2.31959 358 ft 132 kts 52°
2026-05-05 22:00 53.33345 -2.30761 230 ft 132 kts 51°
2026-05-05 22:00 53.33871 -2.29680 208 ft 91 kts 51°
2026-05-05 22:00 53.34094 -2.29216 217 ft 17 kts 51°
2026-05-05 22:01 53.34204 -2.28988 222 ft 33 kts 52°
2026-05-05 22:01 53.34360 -2.28686 222 ft 35 kts 40°
2026-05-05 22:01 53.34564 -2.28499 225 ft 28 kts 22°
2026-05-05 22:01 53.34669 -2.28431 228 ft 1 kts 22°
2026-05-05 22:02 53.34680 -2.28423 230 ft 3 kts 22°
2026-05-05 22:02 53.34702 -2.28398 228 ft 5 kts 36°
2026-05-05 22:02 53.34733 -2.28349 229 ft 7 kts 46°
2026-05-05 22:02 53.34774 -2.28270 230 ft 13 kts 51°
2026-05-05 22:03 53.34819 -2.28175 232 ft 12 kts 52°
2026-05-05 22:03 53.34892 -2.28019 235 ft 10 kts 49°
2026-05-05 22:03 53.34958 -2.27991 235 ft 9 kts 352°
2026-05-05 22:03 53.35021 -2.28052 232 ft 14 kts 320°
2026-05-05 22:04 53.35104 -2.28165 230 ft 16 kts 323°
2026-05-05 22:04 53.35188 -2.28202 234 ft 12 kts
2026-05-05 22:04 53.35245 -2.28190 241 ft 0 kts
2026-05-05 22:04 53.35250 -2.28188 236 ft 1 kts
2026-05-05 22:05 53.35263 -2.28185 237 ft 2 kts
2026-05-05 22:05 53.35284 -2.28180 237 ft 3 kts 11°
2026-05-05 22:05 53.35334 -2.28112 240 ft 16 kts 46°
2026-05-05 22:05 53.35416 -2.27989 244 ft 12 kts 41°
2026-05-05 22:06 53.35468 -2.27930 246 ft 9 kts 20°
2026-05-05 22:06 53.35532 -2.27884 248 ft 11 kts 55°
2026-05-05 22:06 53.35580 -2.27788 251 ft 11 kts 24°
2026-05-05 22:06 53.35663 -2.27758 253 ft 13 kts 10°
2026-05-05 22:07 53.35759 -2.27747 255 ft 15 kts
2026-05-05 22:07 53.35834 -2.27784 255 ft 11 kts 314°
2026-05-05 22:07 53.35910 -2.27848 255 ft 14 kts
2026-05-05 22:07 53.36000 -2.27832 255 ft 15 kts
2026-05-05 22:08 53.36097 -2.27906 255 ft 18 kts 315°
2026-05-05 22:08 53.36192 -2.28065 255 ft 21 kts 314°
2026-05-05 22:08 53.36297 -2.28240 255 ft 22 kts 314°
2026-05-05 22:08 53.36406 -2.28425 255 ft 21 kts 315°
2026-05-05 22:09 53.36507 -2.28593 255 ft 22 kts 314°
2026-05-05 22:09 53.36577 -2.28759 255 ft 16 kts 290°
2026-05-05 22:09 53.36635 -2.28887 255 ft 16 kts 328°
2026-05-05 22:09 53.36716 -2.28996 255 ft 16 kts 314°
2026-05-05 22:10 53.36802 -2.29051 255 ft 12 kts 18°
2026-05-05 22:10 53.36869 -2.28936 255 ft 14 kts 44°
2026-05-05 22:10 53.36929 -2.28837 255 ft 14 kts 46°
2026-05-05 22:10 53.36959 -2.28729 255 ft 4 kts 103°
2026-05-05 22:11 53.36950 -2.28704 255 ft 2 kts 126°
2026-05-05 22:11 53.36948 -2.28701 255 ft 0 kts 133°